Volver al catálogo

STARLINK-34296

ActivoComunicacionesVLEO
NORAD 64216·PAYLOAD·🇺🇸 United States

Lanzado May 31, 2025 desde Vandenberg Space Force Base

Loading…

Próximos Pases (próximas 24 horas)

TLE

ActualizadoSource: CelesTrak SupGP

Época: Sep 15, 2026, 02:18 UTC

1 64216C 25117P   26258.09631944 -.00030709  00000+0 -90752-3 0  2588
2 64216  53.1587 238.8799 0001536  96.3144  61.4342 15.34398420    18

Sigue STARLINK-34296 en tiempo real con AllMySat

Download on the App Store